Location: Newark
(42.1667°N, 14.5667°E)
Time: 20:51:56
(UTC+00:00)

Envisat - Pass Details

Date: 24 January 2020
Orbit: 764 x 766 km, 98.1° (Epoch: 25 February)

Event Time Altitude Azimuth Distance (km) Brightness Sun altitude
Rises 05:09:07 0° 20° (NNE) 3,241 6.3 -13.7°
Reaches altitude 10° 05:11:35 10° 28° (NNE) 2,310 5.7 -13.2°
Maximum altitude 05:16:20 39° 97° (E) 1,136 4.6 -12.4°
Drops below altitude 10° 05:21:03 10° 166° (SSE) 2,293 5.9 -11.5°
Sets 05:23:29 0° 174° (S) 3,214 6.5 -11.1°
